Location: Lamoine Observatory
(44.4551°N, 68.3470°W)
Time: 18:30:42
(UTC-04:00)

Daily predictions for brighter satellites

Satellite Brightness Start Highest point End
(mag) Time Altitude Azimuth Time Altitude Azimuth Time Altitude Azimuth
COSMOS 2455 3.1 20:25:31 10° NW 20:31:33 76° WSW 20:37:32 10° SSE
Cosmos 292 Rocket 3.8 20:28:32 10° SSW 20:33:21 78° ESE 20:38:12 10° NNE
Helios 1B rocket 2.5 20:29:51 10° NNE 20:33:57 63° ESE 20:38:02 10° S
COSMOS 2406 3.8 20:29:08 10° S 20:34:19 36° ESE 20:39:30 10° NE
Cosmos 1455 Rocket 3.1 20:32:33 10° N 20:36:57 87° W 20:41:17 10° S
ARGOS 4.4 20:33:02 10° ESE 20:37:30 27° ENE 20:42:00 10° N
Cosmos 1939 Rocket 2.8 20:34:06 10° SSE 20:37:57 79° ENE 20:41:50 10° N
Cosmos 1680 Rocket 4.1 20:38:37 10° SSE 20:43:23 37° ESE 20:48:10 10° NE
SL-27 R/B 4.0 20:42:10 10° SSE 20:44:53 20° E 20:47:36 10° NE
SPOT 5 3.9 20:44:11 10° ESE 20:47:45 25° ENE 20:51:19 10° N
Cosmos 1743 2.7 20:48:53 10° N 20:52:47 76° E 20:56:40 10° SSE
Cosmos 1346 3.2 20:53:07 10° S 20:55:45 43° E 20:58:26 10° NNE
Envisat 3.6 20:51:57 10° S 20:56:57 57° W 21:01:58 10° NNW
Cosmos 405 4.0 20:54:55 10° N 20:58:10 32° ENE 21:00:55 13° SE
Terra 3.9 20:59:18 10° E 21:01:47 14° ENE 21:04:16 10° NNE
ASTEX 1 3.5 20:57:45 10° SSE 21:02:36 63° E 21:07:27 10° N
Aureole 3 Rocket 3.7 20:57:08 10° S 21:03:47 71° E 21:08:29 10° NNE
MetOp-B 4.4 20:58:41 10° SSE 21:03:53 54° ENE 21:09:06 10° N
SPOT 1/Viking Rocket 4.5 21:03:38 12° SE 21:07:49 34° ENE 21:12:26 10° N
CRYOSAT 2 4.4 21:04:10 10° SSE 21:08:57 65° E 21:13:46 10° N
Cosmos 1437 Rocket 3.8 21:08:11 10° N 21:11:34 29° ENE 21:13:57 16° SE
Tiangong 2 2.4 21:09:34 10° SSW 21:12:05 22° SSE 21:13:18 17° ESE
Meteor 2-9 Rocket 4.2 21:07:12 10° N 21:12:39 68° ENE 21:17:54 12° SSE
Aureole 1 Rocket 2.5 21:10:05 10° S 21:13:20 46° ESE 21:16:16 10° NNE
Okean 1-7 Rocket 3.9 21:09:11 10° SSE 21:13:28 48° E 21:17:47 10° NNE
NOSS 2-2 (E) 3.7 21:10:38 10° SW 21:14:41 78° NW 21:19:32 10° NE
Cosmos 1238 Rocket 4.2 21:09:08 10° S 21:15:44 64° E 21:22:14 10° NNE
DNEPR-1 R/B 3.5 21:12:28 10° NW 21:16:44 89° SW 21:20:18 16° SSE
Okean 2 4.2 21:13:59 15° SSE 21:16:52 33° E 21:20:34 10° NNE
Meteor 2-4 Rocket 3.7 21:15:31 10° S 21:21:06 75° E 21:26:55 10° NNE
Cosmos 1666 2.9 21:19:39 10° NNW 21:23:24 69° W 21:26:56 11° S
Cosmos 1371 Rocket 4.3 21:18:37 10° NNW 21:23:53 56° ENE 21:27:44 18° SE
ISS -2.9 21:21:31 10° SSW 21:24:24 28° SE 21:27:17 10° ENE
Cosmos 2228 4.4 21:24:28 10° NNE 21:27:58 23° ENE 21:30:01 17° ESE
OAO 2 Rocket 4.3 21:24:38 10° SW 21:28:46 27° S 21:31:02 19° SE
Cosmos 923 Rocket 4.4 21:23:33 10° SSW 21:28:51 69° WNW 21:34:10 10° NNE
Cosmos 1833 Rocket 4.3 21:29:45 14° ESE 21:30:50 15° E 21:33:55 10° ENE
Cosmos 2184 Rocket 4.4 21:25:30 10° NNW 21:31:48 65° W 21:38:00 10° S
Cosmos 2074 Rocket 4.5 21:25:51 10° NNW 21:31:59 62° W 21:38:09 10° S
Cosmos 921 Rocket 4.1 21:29:32 10° N 21:33:37 33° ENE 21:36:04 19° ESE
CZ-3A R/B 2.7 21:31:43 10° SSW 21:33:08 15° S 21:33:08 15° S
Cosmos 1606 Rocket 3.7 21:34:54 10° N 21:39:11 58° E 21:41:41 23° SSE
Lacrosse 5 rocket 4.4 21:36:17 10° NW 21:39:22 17° N 21:42:27 10° NE
USA 245 2.1 21:38:45 32° SSE 21:39:50 80° ENE 21:42:16 10° N
Intercosmos 24 3.7 21:36:35 10° N 21:40:47 86° W 21:43:05 21° S
YAOGAN 11 4.2 21:40:59 18° S 21:44:09 74° WSW 21:48:29 10° NNW
USA 267 4.3 21:41:14 10° ENE 21:45:57 21° ESE 21:46:46 20° SE
SL-24 DEB 4.3 21:43:06 22° SSE 21:46:01 64° E 21:50:37 10° N
ERS-1 Rocket 3.9 21:41:40 10° S 21:46:28 45° W 21:51:17 10° NNW
Cosmos 1726 Rocket 3.6 21:45:52 10° N 21:50:10 63° E 21:52:23 27° SSE
Meteor 1-23 Rocket 4.3 21:44:45 10° SSW 21:50:20 82° W 21:55:58 10° N
OE (NEXTSAT) 4.3 21:47:11 10° WNW 21:50:46 85° NNE 21:52:38 26° E
MOS 1-B Rocket 4.3 21:46:03 14° S 21:51:01 66° WSW 21:57:21 10° NNW
Cosmos 1515 3.8 21:53:04 30° SSE 21:54:42 56° E 21:58:26 10° NNE
Meteor 1-4 Rocket 4.0 21:52:19 10° NNE 21:55:14 22° ENE 21:56:01 21° E
H-2A R/B 1.9 21:52:51 24° SSE 21:55:50 77° ENE 22:00:52 10° N
Cosmos 2058 Rocket 3.3 21:52:16 10° N 21:56:36 55° E 21:58:34 30° SE
Cosmos 1980 Rocket 4.0 21:52:32 10° N 21:56:46 21° NE 22:00:40 11° E
Meteor 1-15 Rocket 4.3 21:51:46 10° NNW 21:57:22 74° W 22:01:26 19° S
Cosmos 962 Rocket 4.5 21:54:51 10° N 22:01:09 87° E 22:05:22 22° S
CARTOSAT-1 4.1 21:59:31 28° ESE 22:01:16 44° ENE 22:05:24 10° N
CENTAUR R/B 4.1 21:55:27 10° NW 22:02:42 39° WSW 22:09:18 14° S
Cosmos 1025 Rocket 3.6 21:58:34 10° SSW 22:02:45 55° W 22:06:58 10° N
DMSP B5D2-2 4.3 21:58:46 10° NNE 22:03:57 52° E 22:06:39 27° SSE
Cosmos 1624 Rocket 4.1 22:02:46 10° NNW 22:08:03 77° WSW 22:10:57 27° S
PSLV R/B 4.1 22:08:19 10° W 22:10:40 31° SW 22:10:40 31° SW
SL-08 RB Rocket 4.4 22:14:43 22° SSW 22:17:20 47° W 22:21:41 10° NNW
ARGOS 4.0 22:13:33 17° SSW 22:17:30 45° W 22:22:42 10° NNW
SL-8 Rocket 4.0 22:13:26 10° N 22:19:43 76° E 22:23:03 30° SSE
Cosmos 2366 rocket 4.1 22:17:36 10° N 22:23:43 60° ENE 22:26:33 32° SE
Landsat 7 3.9 22:21:41 33° S 22:23:50 76° WSW 22:28:38 10° NNW
SPOT 5 4.0 22:23:04 17° SSW 22:25:43 31° W 22:29:37 10° NNW
Cosmos 2278 3.7 22:20:26 10° NNW 22:26:12 88° WSW 22:28:45 35° SSE
H-2A R/B 2.1 22:24:49 40° SSE 22:26:25 80° ENE 22:30:58 10° NNW
CZ-4C R/B 4.3 22:26:09 26° E 22:26:29 27° ENE 22:29:32 10° N
Cosmos 2056 Rocket 3.9 22:21:40 10° NNW 22:26:45 56° WSW 22:29:09 29° S
Meteor 2-21 4.5 22:22:20 10° N 22:28:22 65° E 22:31:02 34° SSE
Cosmos 2082 Rocket 2.4 22:28:03 34° SSE 22:30:07 50° ESE 22:35:35 10° NE
CZ-4B R/B 3.7 22:32:58 10° NNE 22:37:53 50° E 22:39:09 41° SE
Cosmos 1626 Rocket 3.6 22:37:17 50° SE 22:38:02 58° E 22:42:17 10° NNE
Terra 1.8 22:37:11 40° S 22:38:54 77° WSW 22:43:41 10° NNW
Cosmos 839 Rocket 4.5 22:34:38 10° NW 22:41:06 65° WSW 22:44:54 31° S
CZ-2C R/B 4.4 22:40:34 10° NE 22:44:16 18° E 22:44:47 18° E
Timation 2 Rocket 4.4 22:42:49 36° SE 22:44:23 41° ESE 22:50:08 10° NE
Cosmos 2369 3.9 22:39:04 10° NNW 22:44:45 65° WSW 22:46:58 37° S
Spot 4 3.9 22:45:18 46° SE 22:46:37 69° ENE 22:51:25 10° N
COSMOS 2487 2.6 22:47:21 57° SW 22:47:54 70° WNW 22:51:29 10° NNE
Cosmos 1420 Rocket 4.1 22:42:55 10° NNW 22:48:10 64° ENE 22:49:47 42° SE
Tiangong 2 3.8 22:45:22 10° WSW 22:45:36 12° WSW 22:45:36 12° WSW
SL-08 R/B 4.4 22:44:28 10° N 22:50:37 87° W 22:53:11 38° S
Cosmos 1842 4.1 22:53:44 37° E 22:53:44 37° E 22:57:04 10° NNE
Cosmos 1048 Rocket 4.4 22:53:19 40° ESE 22:53:45 41° ESE 22:58:34 10° NE
Cosmos 1697 Rocket 2.6 22:48:56 10° NNW 22:54:35 80° ENE 22:56:25 44° SE
SL-16 R/B 4.1 22:50:16 10° N 22:54:36 22° NE 22:58:08 13° E
Cosmos 1953 3.7 22:51:31 10° NNE 22:54:59 26° ENE 22:55:13 26° E
IGS 5A 4.1 22:56:43 40° SW 22:57:37 47° W 23:01:40 10° NNW
Cosmos 1452 Rocket 3.6 22:53:48 10° NNW 22:59:04 71° WSW 23:00:34 46° S
Cosmos 2218 Rocket 4.2 22:53:48 10° NNW 22:59:53 65° W 23:02:38 34° SSW
ISS -2.8 22:57:35 10° W 23:00:47 47° NNW 23:03:59 10° NE
DELTA 2 DEB (DPAF) 4.0 23:01:37 61° SSE 23:02:23 87° E 23:06:55 10° NNW
Iridium 2 3.7 23:01:37 10° N 23:05:19 70° ENE 23:05:19 70° ENE
Cosmos 2228 4.4 23:01:45 10° NNW 23:05:34 31° W 23:06:54 26° WSW
Cosmos 1271 Rocket 2.8 23:01:47 10° N 23:05:37 61° ENE 23:05:37 61° ENE
deb Chang Zheng 4 4.2 23:05:45 10° N 23:09:56 51° WNW 23:11:26 34° SW
Cosmos 1602 Rocket 3.8 23:10:37 49° SW 23:11:32 63° W 23:15:51 10° N
Cosmos 1833 Rocket 2.7 23:11:23 33° SSW 23:13:59 80° WNW 23:19:40 10° NNE
Cosmos 1656 4.0 23:09:40 10° NW 23:14:55 50° WSW 23:16:17 41° SSW
ATLAS CENTAUR R/B 3.6 23:15:18 10° N 23:17:29 15° NE 23:19:12 12° ENE
Lacrosse 5 rocket 3.9 23:16:23 10° NW 23:20:03 22° NNE 23:23:43 10° ENE
Meteor 1-21 4.2 23:19:44 48° S 23:21:27 89° W 23:27:13 10° N
Meteor 2-8 Rocket 4.5 23:22:56 48° SSE 23:24:35 67° E 23:30:42 10° NNE
Cosmos 1766 3.7 23:21:21 10° NNW 23:25:11 51° W 23:25:12 51° W
USA 267 3.1 23:23:05 10° NE 23:29:39 77° SE 23:34:02 23° SW
Meteor 1-4 Rocket 4.4 23:27:26 10° NW 23:30:18 22° W 23:30:20 22° W
Nadezhda 3 Rocket 4.0 23:29:12 46° S 23:31:17 86° E 23:37:40 10° N
Cosmos-2242 4.1 23:28:31 10° N 23:32:25 32° ENE 23:32:34 32° E
Cosmos 1758 3.3 23:30:05 10° N 23:33:51 75° NNE 23:33:51 75° NNE
H-2A R/B 4.3 23:33:41 10° WSW 23:35:53 13° W 23:38:08 10° WNW
Cosmos 2360 Rocket 4.2 23:35:29 10° N 23:39:40 21° NE 23:43:45 10° E
Cosmos 1980 Rocket 2.1 23:35:44 10° NNW 23:41:24 74° WSW 23:42:26 58° S
Cosmos 2239 Rocket 4.4 23:35:39 10° N 23:41:50 80° E 23:43:27 52° SSE
Cosmos 1470 3.5 23:38:53 10° N 23:42:26 46° ENE 23:42:26 46° ENE
SeaSat 1 2.3 23:46:39 68° SSE 23:47:19 88° ENE 23:52:17 10° NNW
SME Rocket 3.6 23:46:35 58° SSW 23:47:33 73° WSW 23:51:55 10° NNW
Cosmos 1821 Rocket 3.9 23:42:19 10° N 23:48:38 88° E 23:50:18 53° S
Cosmos 2322 Rocket 2.8 23:44:19 10° NNW 23:49:53 50° ENE 23:51:42 37° ESE
